Hourly Data Report for October 10, 2016

All times are specified in Local Standard Time (LST). Add 1 hour to adjust for Daylight Saving Time where and when it is observed.

CLYDE RIVER A
NUNAVUT

70°29'09.000" N
68°31'01.000" W
26.50 m
2400804
71090
YCY

Download Data

Hourly Data (October 2016)
Hourly Data Report for October 10, 2016
Temp Definition
°C
Dew Point Temp Definition
°C
Rel Hum Definition
%
Wind Dir Definition
10's deg

Wind Spd Definition
km/h
Visibility Definition
km
Stn Press Definition
kPa
Hmdx Definition


Wind Chill Definition


Weather Definition


TIME
00:00 Legend Double Dagger -7.7 -9.4 88 28 8 16.1 100.44   -12 LegendNANA
01:00 Legend Double Dagger -8.5 -10.0 89 28 11 16.1 100.43   -14 LegendNANA
02:00 Legend Double Dagger -8.9 -9.9 92 26 5 16.1 100.43   -12 LegendNANA
03:00 Legend Double Dagger -8.9 -10.7 87 28 9 16.1 100.43   -14 LegendNANA
04:00 Legend Double Dagger -7.7 -9.3 88 27 8 16.1 100.42   -12 LegendNANA
05:00 Legend Double Dagger -6.9 -9.4 82 24 5 16.1 100.41   -9 LegendNANA
06:00 Legend Double Dagger -7.2 -9.5 84 25 9 16.1 100.40   -12 LegendNANA
07:00 Legend Double Dagger -6.5 -8.8 84 25 8 16.1 100.41   -10 LegendNANA
08:00 Legend Double Dagger -6.1 -8.5 83 24 8 16.1 100.43   -10 LegendNANA
09:00 Legend Double Dagger -6.1 -9.4 78 28 5 16.1 100.43   -9 LegendNANA
10:00 Legend Double Dagger -5.9 -8.7 81 30 18 16.1 100.43   -12 LegendNANA
11:00 Legend Double Dagger -4.8 -7.4 82 29 15 16.1 100.43   -10 LegendNANA
12:00 Legend Double Dagger -4.3 -7.4 79 24 9 16.1 100.44   -8 LegendNANA
13:00 Legend Double Dagger -3.6 -7.1 77   0 16.1 100.46     LegendNANA
14:00 Legend Double Dagger -4.2 -8.0 75 18 5 16.1 100.46   -6 LegendNANA
15:00 Legend Double Dagger -8.4 -10.6 84 34 9 16.1 100.47   -13 LegendNANA
16:00 Legend Double Dagger -8.4 -11.2 80 33 9 16.1 100.44   -13 LegendNANA
17:00 Legend Double Dagger -5.4 -8.5 79 20 13 16.1 100.46   -11 LegendNANA
18:00 Legend Double Dagger -3.5 -7.6 73 24 24 16.1 100.47   -10 LegendNANA
19:00 Legend Double Dagger -4.0 -8.7 70 24 26 16.1 100.44   -11 LegendNANA
20:00 Legend Double Dagger -3.9 -9.5 66 25 13 16.1 100.47   -9 LegendNANA
21:00 Legend Double Dagger -4.8 -10.5 65 25 13 16.1 100.48   -10 LegendNANA
22:00 Legend Double Dagger -5.0 -11.6 60 24 15 16.1 100.51   -11 LegendNANA
23:00 Legend Double Dagger -5.9 -10.9 68 26 9 16.1 100.54   -10 LegendNANA

Notes on Data Quality.

Legend

  • E = Estimated
  • M = Missing
  • NA = Not Available
  • ‡ = Partner data that is not subject to review by the National Climate Archives
Date modified: